User: anonymous   Login
Location: Unspecified
(0.0000°N, 0.0000°E)
Time: 21:43:45
(UTC+00:00)
Language:

Gonets-D1 - Orbit

View from above orbital plane
View from above orbital plane
View from above satellite
View from above satellite

Ground track
Ground track

The orbit data is extracted from the following two-line orbital elements,

1 23789U 96009C   17117.72749299 +.00000058 +00000-0 +26234-3 0  9992
2 23789 082.5762 290.5348 0005819 069.8136 290.3579 12.62593531976518
Epoch (UTC): 27 April 2017 17:27:35
Eccentricity: 0.0005819
inclination: 82.5762°
perigee height: 1408 km
apogee height: 1417 km
right ascension of ascending node: 290.5348°
argument of perigee: 69.8136°
revolutions per day: 12.62593531
mean anomaly at epoch: 290.3579°
orbit number at epoch: 97651

The dashed part of the orbit path shows where the satellite is in the earth's shadow,  

DLR